Location: Newark
(25.6667°N, 138.4167°E)
Time: 15:36:02
(UTC+00:00)

LightSail 2 - Visible Passes

Search period start: 23 October 2019 00:00
Search period end: 02 November 2019 00:00
Orbit: 707 x 722 km, 24.0° (Epoch: 22 October)

Date Brightness Start Highest point End Pass type
(mag) Time Alt. Az. Time Alt. Az. Time Alt. Az.
23 Oct 7.2 10:00:56 10° WSW 10:04:31 19° SSW 10:06:16 16° S visible
24 Oct 7.0 09:02:51 10° WSW 09:07:00 25° SSW 09:11:10 10° SSE visible
25 Oct 7.8 09:53:16 10° SW 09:54:36 11° SSW 09:55:56 10° S visible
26 Oct 7.6 08:54:05 10° WSW 08:57:04 15° SSW 09:00:03 10° SSE visible
